This demonstration page uses our WeatherBlox Daily Observations layout. Learn more.

39.92423, -83.80882

Hourly Observations for May 31, 2017

Temp ( °F °C ) Dew Point ( °F °C ) Humidity (%) Winds ( mph kmh ) Pressure ( in mb ) Visibility ( mi km ) Precip ( " mm )
12:56 am 00:56 Clear 57 13.9 48 8.9 72 72 SSW 6 9 30.02 1017 10 16.0934 0 0
1:56 am 01:56 Clear 58 14.4 47 8.3 67 67 SSW 7 11 30.01 1016 10 16.0934 0 0
2:56 am 02:56 Clear 59 15 45 7.2 60 60 SSW 5 7 30 1016 10 16.0934 0 0
3:56 am 03:56 Mostly Clear 59 15 45 7.2 60 60 SSW 5 7 30 1016 10 16.0934 0 0
4:56 am 04:56 Clear 55 12.8 46 7.8 72 72 SW 5 7 30 1016 10 16.0934 0 0
5:56 am 05:56 Mostly Cloudy 57 13.9 47 8.3 69 69 SW 8 13 30.02 1017 10 16.0934 0 0
6:56 am 06:56 Mostly Cloudy 56 13.3 48 8.9 75 75 Calm 30.04 1017 10 16.0934 0 0
7:56 am 07:56 Mostly Cloudy with Light Rain 60 15.6 48 8.9 65 65 SSW 9 15 30.02 1017 10 16.0934 0 0.0254
8:56 am 08:56 Sunny 65 18.3 51 10.6 61 61 SSW 13 20 30.02 1017 10 16.0934 0 0.0254
9:56 am 09:56 Sunny 69 20.6 52 11.1 55 55 SW 13 20 30.01 1016 10 16.0934 0 0
10:56 am 10:56 Cloudy 69 20.6 52 11.1 55 55 WSW 12 19 30.01 1016 10 16.0934 0 0
11:56 am 11:56 Sunny 74 23.3 52 11.1 46 46 WSW 12 19 30.01 1016 10 16.0934 0 0
12:56 pm 12:56 Mostly Cloudy 76 24.4 52 11.1 43 43 WSW 20 31 30.01 1016 10 16.0934 0 0
1:56 pm 13:56 Mostly Sunny 78 25.6 49 9.4 36 36 WSW 15 24 29.98 1015 10 16.0934 0 0
2:56 pm 14:56 Partly Cloudy 80 26.7 49 9.4 34 34 W 23 37 29.96 1015 10 16.0934 0 0
3:56 pm 15:56 Partly Cloudy 79 26.1 45 7.2 30 30 WSW 20 31 29.96 1015 10 16.0934 0 0
4:56 pm 16:56 Mostly Sunny 78 25.6 47 8.3 33 33 W 22 35 29.95 1014 10 16.0934 0 0
5:56 pm 17:56 Mostly Sunny 77 25 44 6.7 31 31 W 23 37 29.95 1014 10 16.0934 0 0
6:56 pm 18:56 Partly Cloudy 75 23.9 44 6.7 33 33 W 16 26 29.96 1015 10 16.0934 0 0
7:56 pm 19:56 Sunny 73 22.8 43 6.1 34 34 W 16 26 29.97 1015 10 16.0934 0 0
8:56 pm 20:56 Sunny 69 20.6 44 6.7 41 41 W 7 11 29.98 1015 10 16.0934 0 0
9:56 pm 21:56 Clear 65 18.3 44 6.7 47 47 WNW 3 6 30 1016 10 16.0934 0 0
10:56 pm 22:56 Clear 63 17.2 43 6.1 48 48 WNW 3 6 30.02 1017 10 16.0934 0 0
11:56 pm 23:56 Mostly Clear 60 15.6 43 6.1 53 53 WNW 3 6 30.02 1017 10 16.0934 0 0

Powered by AerisWeather